Location: Yucca Valley
(34.1140°N, 116.4310°W)
Time: 05:49:12
(UTC-08:00)

Daily predictions for brighter satellites

Satellite Brightness Start Highest point End
(mag) Time Altitude Azimuth Time Altitude Azimuth Time Altitude Azimuth
USA 229 DEB 4.3 03:56:21 13° S 04:02:20 52° ESE 04:09:01 10° NE
USA 229 4.4 03:56:13 12° S 04:02:27 52° ESE 04:09:06 10° NE
Lacrosse 5 4.3 04:10:49 12° NNE 04:10:49 12° NNE 04:11:17 10° NNE
H-2A ROCKET BODY 4.2 04:15:26 30° SW 04:18:03 35° S 04:42:07 10° SE
Cosmos 1610 Rocket 4.4 04:13:40 10° S 04:19:50 89° ESE 04:26:09 10° N
Sakura Rocket 4.4 04:20:40 50° SSW 04:21:54 57° S 04:30:14 10° E
Feng Yun 1-1 Rocket 4.1 04:16:43 10° NNE 04:24:04 44° SSW 04:27:40 10° SSW
Skynet4D Del rocket 4.4 04:22:37 38° S 04:22:58 38° S 04:27:54 10° ESE
OAO 3 Copernicus 4.3 04:30:09 72° SSE 04:30:09 72° SSE 04:34:58 10° ESE
Okean 1-7 Rocket 4.4 04:29:43 33° NNE 04:31:17 48° E 04:35:31 10° SSE
BREEZE-M DEB (TANK) 3.7 04:35:03 59° NNW 04:35:08 59° NNW 04:45:55 10° NE
Cosmos 2056 Rocket 3.6 04:37:42 55° SW 04:37:42 55° SW 04:41:56 10° S
USA 215 3.5 04:30:36 10° NE 04:37:06 67° SE 04:43:34 10° SSW
Thor Agena Rocket 3.6 04:35:57 10° S 04:40:17 55° SW 04:40:17 55° SW
Meteor 2-13 Rocket 4.3 04:35:45 10° S 04:41:54 86° W 04:48:05 10° N
CRYOSAT 2 4.3 04:37:54 10° S 04:42:47 84° E 04:46:11 20° N
Ariane Rocket 4.3 04:39:51 10° NNE 04:44:38 41° E 04:49:23 10° S
Meteor 1-19 Rocket 4.2 04:42:53 14° N 04:48:02 85° E 04:53:44 10° S
SKYMED 2 4.3 04:46:21 10° SSE 04:50:33 51° ENE 04:54:22 12° N
Nadezhda 3 Rocket 3.9 04:51:25 10° N 04:57:48 80° W 05:04:09 10° S
Cosmos 2369 Rocket 2.1 04:55:40 27° NNW 04:58:56 82° WSW 05:04:36 10° SSE
Lacrosse 4 Rocket 3.6 04:56:10 10° N 04:59:23 22° ENE 05:02:33 10° ESE
Meteor 1-11 Rocket 3.8 04:53:59 10° SSW 04:59:42 55° W 05:05:18 10° N
Cosmos 1025 Rocket 3.2 04:57:49 12° N 05:01:48 71° E 05:06:05 10° SSE
Cosmos 962 Rocket 4.4 04:59:38 10° SSW 05:05:46 71° W 05:12:03 10° N
Meteor 2-4 Rocket 3.7 05:03:40 10° N 05:09:18 88° W 05:15:04 10° S
Meteor 1-23 Rocket 4.3 05:03:56 10° N 05:09:30 79° E 05:15:04 10° S
Meteor 1-5 Rocket 4.0 05:07:52 10° S 05:13:13 88° E 05:18:32 10° N
SL-24 DEB 4.4 05:10:19 10° S 05:15:05 81° E 05:19:53 10° N
NOSS 3-1 (C) 3.6 05:14:14 10° SSW 05:19:53 70° ESE 05:26:05 10° NE
Atlas Centaur 2 4.1 05:12:31 10° SW 05:20:18 40° SSE 05:27:17 10° E
Cosmos 1943 4.0 05:21:04 26° WNW 05:21:48 26° WNW 05:26:30 10° N
Meteor 2-19 Rocket 4.5 05:18:48 10° S 05:24:55 85° E 05:31:02 10° N
Tiangong 2 1.2 05:24:07 37° NW 05:25:09 64° NNE 05:28:16 10° ESE
Cosmos 1943 Rocket 2.3 05:19:42 10° NNW 05:25:13 74° ENE 05:30:43 10° SSE
Cosmos 1452 Rocket 3.6 05:21:45 16° NNW 05:25:49 54° WSW 05:30:56 10° S
Cosmos 2341 Rocket 4.2 05:21:28 10° SSW 05:27:27 46° W 05:33:26 10° N
CSL-04 DEB 4.4 05:25:43 10° N 05:29:49 63° WNW 05:34:00 10° SSW
Cosmos 1544 Rocket 3.4 05:25:59 10° S 05:30:20 79° W 05:34:45 10° N
Cosmos 158 Rocket 4.0 05:26:37 10° SSW 05:31:54 89° WNW 05:37:18 10° NNE
Meteor 2-8 Rocket 4.4 05:26:15 10° N 05:32:27 88° W 05:38:36 10° S
COSMO-SKYMED 1 3.0 05:34:32 10° SSW 05:38:36 40° W 05:42:41 10° NNW
Cosmos 1461 3.1 05:34:47 10° SW 05:39:01 50° WNW 05:43:07 10° NNE
Cosmos 1536 4.2 05:36:31 10° WSW 05:44:06 - NNW 05:39:00 19° W
IDEFIX/ARIANE 42P 3.9 05:34:50 10° NNE 05:39:48 44° E 05:44:45 10° S
SL-24 R/B 4.5 05:42:14 10° N 05:46:56 46° WNW 05:51:04 10° SW
Cosmos 1500 3.8 05:43:20 10° S 05:47:01 60° E 05:50:44 10° NNE
ASTRO E2 3.2 05:45:17 13° W 05:48:41 56° S 05:52:39 10° ESE
Okean 2 3.6 05:45:32 10° NNW 05:49:32 47° W 05:53:30 10° SSW
CZ-3 R/B 2.1 05:38:38 10° WSW 05:49:42 47° S 05:53:17 10° ESE
CZ-2C R/B 3.2 05:45:20 10° NNE 05:50:23 59° E 05:55:15 10° S
PAYLOAD A 4.2 05:45:37 10° NNE 05:51:04 88° WNW 05:56:30 10° SSW
BREEZE M DEB (TANK) 3.8 05:37:41 13° WNW 05:52:28 68° SW 05:56:02 10° SE
USA 229 DEB 4.5 05:47:42 10° WSW 05:53:32 29° NW 05:59:29 10° N
USA 229 4.5 05:47:48 10° WSW 05:53:38 29° NW 05:59:35 10° N
Meteor 1-28 Rocket 3.6 05:50:31 10° S 05:54:08 44° W 05:57:48 10° NNW
Cosmos 839 Rocket 4.0 05:51:09 10° NNW 05:57:31 86° WSW 06:03:42 10° SSE
CZ-4 R/B 1.2 05:56:04 10° N 05:59:58 79° WNW 06:03:50 10° SSW
Cosmos 1892 Rocket 4.0 05:56:29 10° NNW 06:00:42 41° W 06:04:54 10° SSW
Cosmos 1340 3.4 05:58:19 10° NNW 06:01:43 32° W 06:05:06 10° SSW
SMAP 3.2 06:01:26 10° NNE 06:06:07 84° ESE 06:10:45 10° S
NOSS 3-1 (A) 3.3 06:02:07 10° SW 06:07:51 69° WNW 06:14:11 10° NNE
Meteor 1-12 Rocket 4.2 06:02:20 10° SSW 06:07:55 65° W 06:13:32 10° N
Cosmos 1626 Rocket 3.7 06:06:43 10° N 06:11:09 81° E 06:15:30 10° S
Cosmos 405 Rocket 4.1 06:08:55 10° N 06:12:27 39° E 06:15:56 10° SSE
Cosmos 1066 Rocket 4.5 06:09:53 10° N 06:15:21 75° E 06:20:54 10° SSE
CSL-04 Rocket 4.4 06:12:04 10° N 06:16:52 31° WNW 06:21:35 10° SW
ATLAS 2AS CENTAUR R/B 4.5 06:11:39 10° S 06:18:27 43° ESE 06:25:49 10° NE
